Location: La Comballaz
(46.3780°N, 7.0817°E)
Time: 02:30:50
(UTC+00:00)

X-37B - Pass Details

Date: 15 December 2021
Orbit: 334 x 337 km, 45.0° (Epoch: 11 January)

Event Time Altitude Azimuth Distance (km) Brightness Sun altitude
Rises 18:20:32 0° 276° (W) 2,106 5.6 -25.7°
Reaches altitude 10° 18:22:42 10° 263° (W) 1,267 4.2 -26.0°
Enters shadow 18:23:30 15° 252° (WSW) 1,003 3.5 -26.2°
